Home   Weather   Elmshorn   Past weeks

Flag for Germany Past Weather in Elmshorn, Schleswig-Holstein, Germany — Yesterday and Last 2 Weeks

Now
32 °F

Drizzle. Ice fog.


Feels Like: 27 °F
Forecast: 26 / 34 °F
Wind: 5 mph from West

Location: Hamburg-Fuhlsbuettel

Current Time: Jan 24, 2017 at 6:37:38 am

Latest Report: Jan 24, 2017 at 6:20 am


Visibility: 1 mi

Pressure: 30.30 "Hg

Humidity: 100%

Dew Point: 32 °F

Location of ElmshornLocation

Past Weather in Elmshorn — Graph

°F

Elmshorn Temperature Yesterday

Maximum temperature yesterday: 34 °F (at 12:20 pm)
Minimum temperature yesterday: 28 °F (at 5:50 am)
Average temperature yesterday: 32 °F

High & Low Weather Summary for the Past Weeks

 TemperatureHumidityPressure
High45 °F (Jan 11, 4:20 pm)100% (Jan 11, 1:50 pm)30.72 "Hg (Jan 11, 1:50 pm)
Low18 °F (Jan 16, 4:50 am)65% (Jan 19, 1:50 pm)29.06 "Hg (Jan 13, 4:50 am)
Average33 °F90%30.13 "Hg
* Reported Jan 9 5:20 am — Jan 24 5:20 am, Elmshorn, Weather by CustomWeather, © 2017

Note: Actual official high and low records may vary slightly from our data, if they occured in-between our weather recording intervals... More about our weather records

Advertising

Elmshorn Weather History for the Previous 24 Hours

Scroll right to see more
 ConditionsComfort  
Time TempWeatherWind HumidityBarometerVisibility
5:20 am
Tue, Jan 24
32 °FIce fog.5 mph100%30.30 "Hg1 mi
4:50 am32 °FIce fog.5 mph100%30.27 "Hg1 mi
4:20 am32 °FIce fog.5 mph100%30.27 "Hg1 mi
3:50 am32 °FIce fog.5 mph100%30.27 "Hg1 mi
3:20 am32 °FIce fog.7 mph100%30.27 "Hg1 mi
2:50 am32 °FIce fog.6 mph100%30.27 "Hg1 mi
2:20 am32 °FIce fog.5 mph100%30.27 "Hg1 mi
1:50 am32 °FIce fog.5 mph100%30.27 "Hg1 mi
1:20 am34 °FFog.6 mph93%30.27 "Hg1 mi
12:50 am34 °FFog.6 mph93%30.27 "Hg1 mi
12:20 am34 °FFog.6 mph93%30.27 "Hg1 mi
11:50 pm
Mon, Jan 23
34 °FFog.6 mph93%30.27 "Hg2 mi
11:20 pm34 °FFog.6 mph93%30.27 "Hg2 mi
10:50 pm34 °FFog.6 mph93%30.27 "Hg2 mi
10:20 pm34 °FFog.7 mph93%30.27 "Hg2 mi
9:50 pm34 °FFog.7 mph93%30.27 "Hg2 mi
9:20 pm34 °FFog.8 mph93%30.27 "Hg2 mi
8:50 pm34 °FFog.6 mph93%30.27 "Hg2 mi
8:20 pm34 °FFog.5 mph93%30.27 "Hg3 mi
7:50 pm34 °FFog.6 mph93%30.27 "Hg3 mi
7:20 pm34 °FFog.5 mph87%30.27 "Hg3 mi
6:50 pm34 °FFog.6 mph93%30.27 "Hg2 mi
6:20 pm34 °FFog.5 mph93%30.27 "Hg2 mi
5:50 pm34 °FFog.5 mph93%30.27 "Hg2 mi
5:20 pm34 °FFog.5 mph93%30.27 "Hg2 mi
4:50 pm34 °FFog.6 mph93%30.27 "Hg2 mi
4:20 pm34 °FFog.3 mph87%30.27 "Hg2 mi
3:50 pm34 °FFog.6 mph87%30.27 "Hg3 mi
3:20 pm34 °FFog.7 mph87%30.27 "Hg3 mi
2:50 pm34 °FFog.7 mph87%30.27 "Hg3 mi
2:20 pm34 °FFog.5 mph87%30.27 "Hg3 mi
1:50 pm32 °FIce fog.7 mph93%30.27 "Hg3 mi
1:20 pm32 °FIce fog.8 mph93%30.27 "Hg3 mi
12:50 pm32 °FIce fog.7 mph93%30.27 "Hg3 mi
12:20 pm34 °FFog.3 mph87%30.27 "Hg3 mi
11:50 am32 °FIce fog.3 mph93%30.27 "Hg3 mi
11:20 am32 °FIce fog.3 mph93%30.27 "Hg3 mi
10:50 am32 °FIce fog.No wind87%30.27 "Hg3 mi
10:20 am30 °FIce fog.No wind100%30.27 "Hg2 mi
9:50 am30 °FIce fog.1 mph93%30.27 "Hg2 mi
9:20 am30 °FIce fog.1 mph93%30.27 "Hg2 mi
8:50 am30 °FSnow flurries. Ice fog.6 mph93%30.27 "Hg2 mi
8:20 am30 °FSnow flurries. Ice fog.9 mph93%30.27 "Hg2 mi
7:50 am30 °FSnow flurries. Ice fog.8 mph93%30.27 "Hg2 mi
7:20 am30 °FLight freezing rain. Ice fog.8 mph93%30.27 "Hg2 mi
6:50 am30 °FLight freezing rain. Ice fog.8 mph93%30.27 "Hg2 mi
6:20 am30 °FLight freezing rain. Ice fog.5 mph93%30.27 "Hg2 mi
Weather by CustomWeather, © 2017

See weather overviewHow to use our weather pages